Bigfork, MN

3:31 AM CDT on March 29, 2017 (GMT -0500)
Bigfork Municipal

Weather History for KFOZ - September, 2013

Change the Weather History Date:

Sunday, September 1, 2013

  Actual Average (KGPZ) Record (KGPZ)
Temperature  
Mean Temperature 58 °F -  
Max Temperature 64 °F 72 °F 93 °F (1921)
Min Temperature 53 °F 50 °F 29 °F (1935)
Degree Days  
Heating Degree Days 6    
Growing Degree Days 8 (Base 50)    
Moisture  
Dew Point 55 °F    
Average Humidity 84    
Maximum Humidity 94    
Minimum Humidity 68    
Precipitation  
Precipitation 0.00 in - - ()
Sea Level Pressure  
Sea Level Pressure 29.89 in    
Wind  
Wind Speed 5 mph (NNW)    
Max Wind Speed 12 mph    
Max Gust Speed 18 mph    
Visibility 9 miles    
Events Rain    
Averages and records for this station are not official NWS values.
T = Trace of Precipitation, MM = Missing Value Source: NWS Daily Summary

Daily Weather History Graph

Daily Weather History Graph

Search for Another Location

Airport or City:

Trip Planner

Search our weather history database for the weather conditions in past years. The results will help you decide how hot, cold, wet, or windy it might be!

Date:

Astronomy

Sep. 01, 2013 Rise Set
Actual Time 6:33 AM CDT 7:54 PM CDT
Civil Twilight 6:01 AM CDT 8:26 PM CDT
Nautical Twilight 5:22 AM CDT 9:05 PM CDT
Astronomical Twilight 4:40 AM CDT 9:46 PM CDT
Moon 2:45 AM CDT (9/1) 5:41 PM CDT (9/1)
Length of Visible Light 14h 25m
Length of Day
13h 21m
Waning Crescent, 13% of the Moon is Illuminated
Sep 1
Waning Crescent
Sep 5
New
Sep 12
First Quarter
Sep 19
Full
Sep 26
Last Quarter

Hourly Weather History & Observations

Time (CDT) Temp. Dew Point Humidity Pressure Visibility Wind Dir Wind Speed Gust Speed Precip Events Conditions
12:13 AM 64.4 °F 62.6 °F 94% 29.70 in 10.0 mi Calm Calm - N/A   Scattered Clouds
12:33 AM 64.4 °F 62.6 °F 94% 29.71 in 10.0 mi NNW 5.8 mph - N/A   Overcast
12:53 AM 64.4 °F 60.8 °F 88% 29.71 in 10.0 mi NW 5.8 mph - N/A   Overcast
1:13 AM 62.6 °F 59.0 °F 88% 29.73 in 10.0 mi NW 10.4 mph 18.4 mph N/A   Overcast
1:33 AM 62.6 °F 57.2 °F 82% 29.74 in 10.0 mi NW 5.8 mph - N/A   Overcast
1:53 AM 60.8 °F 57.2 °F 88% 29.74 in 10.0 mi WNW 5.8 mph - N/A   Overcast
2:13 AM 60.8 °F 57.2 °F 88% 29.75 in 10.0 mi NW 5.8 mph - N/A   Overcast
2:33 AM 62.6 °F 59.0 °F 88% 29.75 in 10.0 mi Calm Calm - N/A   Overcast
2:53 AM 62.6 °F 59.0 °F 88% 29.75 in 10.0 mi NNW 5.8 mph - N/A   Overcast
3:13 AM 62.6 °F 60.8 °F 94% 29.75 in 10.0 mi Calm Calm - N/A   Overcast
3:33 AM 62.6 °F 60.8 °F 94% 29.75 in 10.0 mi Calm Calm - N/A Rain Light Rain
3:53 AM 62.6 °F 60.8 °F 94% 29.75 in 10.0 mi NW 3.5 mph - N/A   Overcast
4:13 AM 62.6 °F 60.8 °F 94% 29.76 in 10.0 mi NW 5.8 mph - N/A   Overcast
4:33 AM 62.6 °F 59.0 °F 88% 29.76 in 10.0 mi NW 3.5 mph - N/A   Mostly Cloudy
4:53 AM 62.6 °F 59.0 °F 88% 29.76 in 10.0 mi NW 3.5 mph - N/A   Overcast
5:13 AM 62.6 °F 59.0 °F 88% 29.77 in 10.0 mi WNW 5.8 mph - N/A   Overcast
5:33 AM 62.6 °F 57.2 °F 82% 29.77 in 10.0 mi Calm Calm - N/A Rain Light Rain
5:53 AM 60.8 °F 57.2 °F 88% 29.78 in 10.0 mi WNW 5.8 mph - N/A   Overcast
6:13 AM 60.8 °F 57.2 °F 88% 29.79 in 10.0 mi WNW 4.6 mph - N/A   Overcast
6:33 AM 60.8 °F 57.2 °F 88% 29.80 in 7.0 mi WNW 4.6 mph - N/A   Light Drizzle
6:53 AM 60.8 °F 57.2 °F 88% 29.80 in 7.0 mi West 3.5 mph - N/A Rain Light Rain
7:13 AM 60.8 °F 57.2 °F 88% 29.81 in 10.0 mi WNW 4.6 mph - N/A   Overcast
7:33 AM 60.8 °F 57.2 °F 88% 29.81 in 10.0 mi WNW 4.6 mph - N/A   Overcast
7:53 AM 60.8 °F 57.2 °F 88% 29.81 in 10.0 mi WNW 8.1 mph - N/A   Overcast
8:13 AM 60.8 °F 57.2 °F 88% 29.82 in 5.0 mi WNW 8.1 mph - N/A   Overcast
8:33 AM 60.8 °F 57.2 °F 88% 29.82 in 10.0 mi NW 6.9 mph - N/A   Overcast
8:53 AM 60.8 °F 57.2 °F 88% 29.84 in 7.0 mi NNW 5.8 mph - N/A   Overcast
9:13 AM 60.8 °F 57.2 °F 88% 29.85 in 10.0 mi NNW 8.1 mph - N/A   Overcast
9:33 AM 60.8 °F 55.4 °F 82% 29.85 in 4.0 mi NW 3.5 mph - N/A   Overcast
9:53 AM 60.8 °F 55.4 °F 82% 29.86 in 7.0 mi NNW 9.2 mph 16.1 mph N/A   Overcast
10:13 AM 60.8 °F 55.4 °F 82% 29.87 in 10.0 mi NNW 4.6 mph - N/A   Overcast
10:33 AM 60.8 °F 55.4 °F 82% 29.88 in 10.0 mi NNW 8.1 mph - N/A   Overcast
10:53 AM 60.8 °F 55.4 °F 82% 29.89 in 7.0 mi NNW 9.2 mph - N/A   Overcast
11:13 AM 59.0 °F 55.4 °F 88% 29.90 in 5.0 mi NNW 5.8 mph 18.4 mph N/A   Overcast
11:33 AM 60.8 °F 53.6 °F 77% 29.90 in 10.0 mi North 6.9 mph - N/A   Overcast
11:53 AM 59.0 °F 55.4 °F 88% 29.91 in 3.0 mi NNW 4.6 mph - N/A   Overcast
12:13 PM 59.0 °F 55.4 °F 88% 29.92 in 2.5 mi NNW 8.1 mph - N/A   Light Drizzle
12:33 PM 60.8 °F 55.4 °F 82% 29.92 in 4.0 mi NNW 8.1 mph - N/A   Haze
12:53 PM 62.6 °F 55.4 °F 77% 29.92 in 10.0 mi NNW 9.2 mph - N/A   Mostly Cloudy
1:13 PM 60.8 °F 53.6 °F 77% 29.93 in 10.0 mi NW 9.2 mph - N/A   Mostly Cloudy
1:33 PM 60.8 °F 53.6 °F 77% 29.93 in 10.0 mi NNW 8.1 mph 16.1 mph N/A   Mostly Cloudy
1:53 PM 62.6 °F 53.6 °F 72% 29.93 in 7.0 mi NNW 6.9 mph - N/A   Mostly Cloudy
2:13 PM 62.6 °F 53.6 °F 72% 29.94 in 10.0 mi WNW 9.2 mph - N/A   Mostly Cloudy
2:33 PM 62.6 °F 53.6 °F 72% 29.94 in 10.0 mi North 6.9 mph - N/A   Mostly Cloudy
2:53 PM 60.8 °F 53.6 °F 77% 29.95 in 10.0 mi NW 6.9 mph - N/A   Mostly Cloudy
3:13 PM 62.6 °F 53.6 °F 72% 29.96 in 10.0 mi NNW 8.1 mph - N/A   Mostly Cloudy
3:33 PM 62.6 °F 51.8 °F 68% 29.95 in 10.0 mi NW 8.1 mph - N/A   Mostly Cloudy
3:53 PM 60.8 °F 53.6 °F 77% 29.96 in 10.0 mi NNW 10.4 mph - N/A   Mostly Cloudy
4:13 PM 62.6 °F 51.8 °F 68% 29.96 in 10.0 mi NNW 6.9 mph - N/A   Mostly Cloudy
4:33 PM 62.6 °F 51.8 °F 68% 29.96 in 10.0 mi NNW 6.9 mph - N/A   Mostly Cloudy
4:53 PM 62.6 °F 51.8 °F 68% 29.96 in 10.0 mi NW 4.6 mph - N/A   Mostly Cloudy
5:13 PM 62.6 °F 51.8 °F 68% 29.97 in 10.0 mi NW 6.9 mph - N/A   Mostly Cloudy
5:33 PM 60.8 °F 51.8 °F 72% 29.97 in 10.0 mi NNW 9.2 mph - N/A   Mostly Cloudy
5:53 PM 60.8 °F 51.8 °F 72% 29.98 in 10.0 mi North 11.5 mph 16.1 mph N/A   Overcast
6:13 PM 59.0 °F 51.8 °F 77% 29.98 in 10.0 mi North 10.4 mph - N/A   Overcast
6:33 PM 59.0 °F 51.8 °F 77% 29.99 in 10.0 mi NNW 8.1 mph - N/A   Overcast
6:53 PM 57.2 °F 51.8 °F 82% 29.99 in 10.0 mi NNW 5.8 mph - N/A   Overcast
7:13 PM 57.2 °F 51.8 °F 82% 30.00 in 10.0 mi NNW 5.8 mph - N/A   Overcast
7:33 PM 57.2 °F 51.8 °F 82% 30.00 in 10.0 mi North 5.8 mph - N/A   Overcast
7:53 PM 55.4 °F 51.8 °F 88% 30.00 in 7.0 mi North 5.8 mph - N/A   Overcast
8:13 PM 55.4 °F 51.8 °F 88% 30.01 in 7.0 mi North 3.5 mph - N/A   Light Drizzle
8:33 PM 55.4 °F 51.8 °F 88% 30.01 in 5.0 mi North 4.6 mph - N/A   Drizzle
8:53 PM 53.6 °F 51.8 °F 94% 30.02 in 10.0 mi North 5.8 mph - N/A   Mostly Cloudy
9:13 PM 53.6 °F 51.8 °F 94% 30.02 in 10.0 mi Calm Calm - N/A   Mostly Cloudy
9:33 PM 53.6 °F 51.8 °F 94% 30.03 in 10.0 mi North 3.5 mph - N/A   Overcast
9:53 PM 53.6 °F 51.8 °F 94% 30.03 in 10.0 mi NW 3.5 mph - N/A Rain Light Rain
10:13 PM 53.6 °F 51.8 °F 94% 30.04 in 10.0 mi NNW 4.6 mph - N/A   Overcast
10:33 PM 53.6 °F 50.0 °F 88% 30.04 in 10.0 mi NNW 4.6 mph - N/A   Overcast
10:53 PM 53.6 °F 50.0 °F 88% 30.04 in 10.0 mi North 5.8 mph - N/A   Overcast
11:13 PM 53.6 °F 50.0 °F 88% 30.05 in 10.0 mi North 3.5 mph - N/A   Overcast
11:33 PM 53.6 °F 50.0 °F 88% 30.05 in 10.0 mi North 3.5 mph - N/A   Overcast
11:53 PM 53.6 °F 50.0 °F 88% 30.06 in 7.0 mi Calm Calm - N/A Rain Light Rain